www.pogodaiklimat.ru
ПОГОДА в Сосновом Бору
Время
(UTC), дата
00 17.10
06 17.10
09 17.10
12 17.10
15 17.10
18 17.10
21 17.10
00 18.10
06 18.10
09 18.10
12 18.10
15 18.10
18 18.10
21 18.10
00 19.10
03 19.10
06 19.10
09 19.10
12 19.10
15 19.10
18 19.10
21 19.10
00 20.10
03 20.10
06 20.10
09 20.10
12 20.10
15 20.10
18 20.10
21 20.10
00 21.10
03 21.10
06 21.10
09 21.10
12 21.10
15 21.10
18 21.10
21 21.10
00 22.10
03 22.10
06 22.10
09 22.10
12 22.10
18 22.10
21 22.10
00 23.10
03 23.10
Ветер
(напр.,м/с)
Видим. Явления Облачность Т
(С)
Тd
(С)
f
(%)
Тe
(С)
Тes
(С)
Комфортность P
(гПа)
Po
(гПа)
Тmin
(С)
Tmax
(С)
R
(мм)
R24
(мм)
S
(см)
В 3 н/о 10/10
[St]
+5.9 +4.1 88 +3 +3 по сезону 1009.7 1007.2
В 4
{10}
н/о 10/10
[St]
+5.6 +4.6 93 +1 +1 по сезону 1009.1 1006.6 +5.6
В 4
{10}
н/о слаб. дождь 10/0
[As op]
+5.6 +4.8 95 +1 +2 по сезону 1009.0 1006.5
В 3 н/о слаб. дождь 10/0
[As op]
+5.0 +4.4 96 +1 +2 по сезону 1009.1 1006.6
В 3 н/о слаб. дождь 10/0
[As op]
+4.8 +4.4 97 +1 +1 по сезону 1009.8 1007.3
В 4 н/о слаб. дождь 10/0
[As op]
+4.7 +4.3 97 0 0 по сезону 1010.4 1007.9 +5.8 9
В 3 н/о слаб. дождь 10/0
[As op]
+4.7 +4.4 98 +1 +1 по сезону 1010.8 1008.3
В 2 н/о слаб. дождь 10/0
[As op]
+4.8 +4.5 98 +2 +2 по сезону 1011.1 1008.6
В 1 н/о слаб. морось {дождь} 10/10
[St]
+5.3 +5.1 99 +4 +4 по сезону 1012.1 1009.6 +4.7 3
ЮЗ 2 н/о слаб. морось {туман} туман 10/10
[St]
+7.1 +7.0 99 +5 +5 тепло 1013.5 1011.0
З 2 н/о слаб. морось {туман} 10/10
[St]
+7.5 +7.1 97 +5 +5 тепло 1014.3 1011.8
Ю 1 н/о {морось} 10/10
[Sc]
+7.4 +7.0 97 +6 +6 тепло 1014.8 1012.3
В 1 н/о {морось} 10/10
[Sc]
+5.9 +5.6 98 +5 +5 тепло 1014.6 1012.1 +7.8 0.4
ЮВ 2 н/о 10/10
[Sc]
+8.3 +8.2 99 +6 +6 тепло 1013.5 1011.0
Ю 2 н/о 10/10
[Sc]
+10.3 +10.0 98 +9 +9 тепло 1012.5 1010.0
ЮВ 2 н/о 10/10
[Sc]
+10.7 +10.4 98 +9 +9 тепло 1011.2 1008.7 +5.7
Ю 4 н/о в посл. час ливневой дождь 10/8
[Cb cap Ac trans]
+11.1 +10.6 97 +9 +9 тепло 1010.4 1007.9 +6.0 0.1
Ю 5 н/о {ливн. осадки} 10/8
[Sc Ac trans]
+12.7 +11.2 91 +10 +10 тепло 1009.3 1006.8
Ю 5 н/о в посл. час ливневой дождь 10/8
[Cb cap Ac trans]
+13.4 +11.7 89 +11 +11 тепло 1009.1 1006.6
ЮЗ 2 н/о 10/9
[Cb cap Ac trans]
+12.8 +11.4 91 +12 +12 тепло 1010.6 1008.1
ЮЗ 2 н/о 9/6
[Sc Ac trans]
+11.0 +9.6 91 +10 +10 тепло 1011.6 1009.1 +13.6 0.1
ЮЗ 3 н/о 10/6
[Sc Ac trans Ci fib]
+9.5 +8.6 94 +7 +7 тепло 1012.8 1010.3
ЮЗ 3 н/о 10/3
[Sc Cs]
+7.9 +7.5 97 +5 +5 тепло 1013.6 1011.1
Ю 3 н/о 10/0
[Cs]
+7.5 +7.1 97 +4 +4 по сезону 1014.5 1012.0 +7.5
ЮЗ 3 н/о 10/9
[Sc Ac As Cs]
+8.3 +7.5 95 +5 +5 тепло 1015.7 1013.2 +7.5
Ю 2 н/о 8/0
[Cs]
+10.7 +9.0 89 +9 +11 тепло 1016.9 1014.4
Ю 3 н/о 10/10
[St]
+10.1 +8.4 89 +8 +8 тепло 1017.3 1014.8
В 2 н/о 10/0
[Ac As]
+9.7 +8.1 90 +8 +8 тепло 1016.6 1014.1
В 2 н/о слаб. дождь 10/0
[As op]
+8.8 +8.0 95 +7 +7 тепло 1015.1 1012.6 +12.0 0.5
В 3 н/о дождь 10/0
[As op]
+9.5 +9.0 97 +7 +7 тепло 1010.8 1008.3
ЮЗ 4 н/о {дождь} 10/10
[St]
+11.6 +10.8 95 +9 +9 тепло 1008.8 1006.3
ЮЗ 4 н/о 10/10
[St]
+11.1 +10.2 94 +9 +9 тепло 1010.0 1007.5 +8.7
З 4 н/о 9/9
[Sc]
+10.3 +8.2 87 +8 +8 тепло 1011.2 1008.7 +8.7 9
СЗ 4 н/о в посл. час ливневой дождь 10/10
[Sc]
+8.6 +7.2 91 +5 +5 тепло 1014.0 1011.6
СЗ 3 н/о {ливн. осадки} 10/10
[St]
+6.7 +4.7 87 +4 +4 по сезону 1017.5 1015.0
СЗ 2 н/о 10/10
[St]
+6.5 +4.4 86 +4 +4 по сезону 1019.7 1017.2
ЮЗ 2 н/о 10/10
[St]
+6.5 +4.0 84 +4 +4 по сезону 1020.6 1018.0 +10.3
Ю 2 н/о н/о +5.8 +4.2 89 +3 +3 по сезону 1020.5 1017.9
Ю 3 н/о морось 10/10
[St]
+6.2 +5.8 97 +3 +3 по сезону 1019.9 1017.3
ЮЗ 3 н/о 10/10
[St]
+5.8 +5.2 96 +2 +2 по сезону 1018.8 1016.2 +5.4
Ю 4 н/о {дождь} 10/10
[Sc]
+6.1 +5.3 95 +2 +2 по сезону 1017.1 1014.6 +5.4 0.6
Ю 7-10
{11}
н/о 10/10
[Sc]
+8.7 +5.9 83 +4 +4 по сезону 1014.2 1011.7
Ю 6 н/о слаб. дождь 10/10
[St]
+8.8 +8.2 96 +5 +5 тепло 1011.1 1008.6
ЮЗ 7-11
{14}
н/о {дождь, морось} 10/10
[St]
+11.5 +8.4 81 +8 +8 тепло 1008.5 1006.0 +11.8 1
ЮЗ 6-11
{14}
н/о 10/10
[St]
+11.1 +7.2 77 +8 +8 тепло 1007.9 1005.4
ЮЗ 6-10
{13}
н/о 10/10
[St]
+11.5 +8.0 79 +9 +9 тепло 1007.5 1005.0
З 5
{15}
н/о 10/10
[St]
+10.9 +8.4 85 +8 +8 тепло 1008.2 1005.7 +10.2
Местоположение метеостанции Сосновый Бор (Ленинградская область, Россия): широта 59.82 долгота 29.17 высота над уровнем моря 21 м.
В архиве по умолчанию представлена погода в Сосновом Бору за последнюю неделю. Архивные данные за месяц целиком и за предыдущие месяцы, начиная с января 2011 года, Вы можете получить, выбрав интересующий диапазон дат из раскрывающегося списка и нажав кнопку "Найти!".
*Определитесь, кто Вы:
Внимание! Время в таблицах - всемирное. Для получения местного времени необходимо прибавить поправку, которая равна 3 ч.
Смотрите также архив погоды в соседних городах и на ближайших метеорологических станциях:
Партнеры нашего сайта:      
Пояснения к столбцам:
  • Ветер - указаны скорость ветра в м/с - средняя за 10 мин, порывы в срок и между сроками (в фигурных скобках) и направление, откуда дует ветер: С - северный,
  • СВ - северо-восточный, В - восточный, ЮВ - юго-восточный, Ю - южный, ЮЗ - юго-западный, З - западный, СЗ - северо-западный.
  • Видимость - горизонтальная дальность видимости в метрах или километрах. При видимости от 1 до 10 км при отсутствии осадков обычно наблюдается дымка, при ухудшении видимости до 1 км и менее - туман. В сухую погоду видимость может ухудшаться дымом, пылью или мглою.
  • Явления - указаны атмосферные явления, наблюдавшиеся в срок или в последний час перед сроком; фигурными скобками обозначены явления, наблюдавшиеся между сроками (за 1-3 часа до срока); квадратными скобками обозначены град или гололедные отложения с указанием их диаметра в мм.
  • Облачность - указаны через наклонную черту общая и нижняя облачность в баллах и высота нижней границы облаков в метрах; квадратными скобками обозначены формы облаков: Ci - перистые, Cs - перисто-слоистые, Cc - перисто-кучевые, Ac - высококучевые, As - высокослоистые, Sc - слоисто-кучевые, Ns - слоисто-дождевые, Cu - кучевые, Cb - кучево-дождевые. Подробнее классификацию облаков см. в Атласе облаков (PDF).
  • T - Температура воздуха - температура, измеренная на высоте 2 м над землей.
  • Td - Температура точки росы - температура, при понижении до которой содержащийся в воздухе водяной пар достигнет насыщения.
  • f - Относительная влажность воздуха - влажноcть воздуха, измеренная на высоте 2 м над землей.
  • Te - Эффективная температура - температура, которую ощущает одетый по сезону человек в тени. Характеристика душности погоды. При расчете учитывается влияние влажности воздуха и скорости ветра на теплоощущения человека.
  • Tes - Эффективная температура на солнце - температура, которую ощущает человек, с поправкой на солнечный нагрев. Характеристика знойности погоды. Зависит от высоты солнца над горизонтом, облачности и скорости ветра. Ночью, в пасмурную погоду, а также при ветре 12 м/с и более поправка равна нулю.
  • P - Атмосферное давление - приведенное к уровню моря атмосферное давление.
  • Po - Атмосферное давление - измеренное на уровне метеостанции атмосферное давление.
  • Tmin - Минимальная температура - минимум температуры воздуха на высоте 2 м над землей.
  • Tmax - Максимальная температура - максимум температуры воздуха на высоте 2 м над землей.
  • R - Количество осадков - Количество выпавших осадков за период времени, мм. При наведении курсора мыши на число - период времени, за который выпало указанное количество осадков.
  • R24 - Количество осадков - Количество выпавших осадков за 24 часа, мм.
  • S - Снежный покров - Высота снежного покрова, см. При наведении курсора мыши на число - состояние снежного покрова и степень покрытия местности в баллах.